(2007 WD5) |
Classification: Apollo [NEO] SPK-ID: 3395991 |
[ hide orbit diagram ]
For accurate long-term ephemerides, please instead use our Horizons system.This orbit viewer was implemented using two-body methods, and hence should not be used for determining accurate long-term trajectories (over several years or decades) or planetary encounter circumstances.
Orbital Elements at Epoch 2459000.5 (2020-May-31.0) TDB
Reference: JPL 18 (heliocentric ecliptic J2000)
Element | Value | Uncertainty (1-sigma) | Units |
e | .5948924936787507 | 0.00017523 | |
a | 2.453556010088959 | 0.02252 | au |
q | .9939539568666521 | 0.0095531 | au |
i | 2.442825535134544 | 0.021992 | deg |
node | 68.29003128138321 | 0.33536 | deg |
peri | 310.1070553220129 | 0.88763 | deg |
M | 101.6431131455487 | 15.276 | deg |
tp | 2458604.160050979039 (2019-Apr-30.66005098) | 54.11 | TDB |
period | 1403.758476417686 3.84 | 19.327 0.05291 | d yr |
n | .2564543730618818 | 0.0035308 | deg/d |
Q | 3.913158063311267 | 0.035917 | au |
|
| | Orbit Determination Parameters
Additional Information
|
[ show covariance matrix ]
Physical Parameter Table
Parameter |
Symbol |
Value |
Units |
Sigma |
Reference |
Notes |
absolute magnitude |
H |
24.3 |
|
n/a |
MPO143292 |
|
|
[ show close-approach data ]
|